Weather in Alyokhovshchina

Russia / Saint-Petersburg and Leningrad Oblast     60°24′11″N   33°51′10″E
temp.,
°C
wind,
m/s
gust,
m/s
humid.,
%
clouds,
%
prec.,
mm/h
press.,
hPa
HPBL,
m
27 october, wed
wed2700:00+4ssw4994100 0.1 1008407
03:00+4ssw4994100 0.3 1006414
06:00+3ssw3995100 0.0 1004437
09:00+4ssw41197100 2.0 1002679
12:00+7w41096100 0.6 1003676
15:00+7w51182100 1.0 1004826
18:00+5wsw31095100 0.1 1005387
21:00+6wsw41094100 0.1 1004590
28 october, thu
thu2800:00+6sw3994100 0.1 1004439
03:00+5s1398100 0.6 1004123
06:00+5ene1195100 1.1 100517
09:00+5nw2596100 1.3 1008209
12:00+4ne3694100 0.1 1013384
15:00+4ne2492100 0.2 1016415
18:00+3e2392100 0.0 1019172
21:00+2se2594100 0.0 1020146
29 october, fri
fri2900:00+3sse3995100 0.0 1019278
03:00+5s41392100 0.1 1018582
06:00+6s61691100 1.9 1014838
09:00+7ssw51496100 1.9 1014629
12:00+10wsw5128899 0.0 10131004
15:00+10wsw5138445 0.1 1014892
18:00+9sw5148736 0.0 1015677
21:00+9sw51590100 0.0 1015634
30 october, sat
sat3000:00+8sw4149285 0.0 1016594
03:00+7sw41295100 0.0 1016443
06:00+7sw3119541 0.0 1017390
09:00+7sw3109766 0.0 1018405
12:00+9sw499088 0.0 1019504
15:00+9sw398822 0.0 1019547
18:00+7ssw399675 0.0 1018270
21:00+7ssw3109758 0.0 1019321
31 october, sun
sun3100:00+7ssw31096100 0.0 1018382
03:00+7ssw4119790 0.0 1018405
06:00+7sw41091100 0.0 1017553
09:00+6sw399676 0.0 1018439
12:00+8sw388796 0.0 1018416
15:00+9ssw3885100 0.0 1018379
18:00+7ssw3994100 0.0 1018266
21:00+6s31094100 0.0 1017295